Regional Weather Roundup
Issued by NWS

Current Version | Previous Version | Text Only | Print | Product List | Glossary On
Versions: 1 2 3 4 5 6 7 8 9 10 11 12 13 14 15 16 17 18 19 20 21 22 23 24 25 26 27 28 29 30 31 32 33 34 35 36 37 38 39 40 41 42 43 44 45 46 47 48 49 50
000
ASUS42 KTBW 060316
RWRFL
FLORIDA REGIONAL WEATHER ROUNDUP
NATIONAL WEATHER SERVICE TAMPA BAY RUSKIN FL
1000 PM EST MON DEC 05 2016

NOTE: "FAIR" INDICATES FEW OR NO CLOUDS BELOW 12,000 FEET WITH NO
SIGNIFICANT WEATHER AND/OR OBSTRUCTIONS TO VISIBILITY.

FLZ001>010-012>015-112-114-115-060400-
PANHANDLE FLORIDA

CITY           SKY/WX    TMP DP  RH WIND       PRES   REMARKS
PENSACOLA      HVY RAIN  64  62  93 CALM      29.75S FOG
PENSACOLA NAS  LGT RAIN  63  63 100 E6        29.73F
MILTON NAS     LGT RAIN  61  61 100 E7        29.74F
CRESTVIEW      LGT RAIN  64  63  96 N3        29.76F
DUKE FIELD     LGT RAIN  64  63  94 SW3       29.77R FOG
VALPARAISO     LGT RAIN  66  66 100 W3        29.76R
MARY ESTHER    LGT RAIN  65  64  99 N6        29.74
TRI COUNTY     RAIN      64  64 100 CALM      29.78F FOG
PANAMA CITY    CLOUDY    75  73  93 S15G23    29.75F
TYNDALL AFB    CLOUDY    72  70  94 S13       29.77F
APALACHICOLA   CLOUDY    72  71  97 SW13      29.80S

STATION/POSITION SKY/WX   TEMP    WIND        PRES    WAVE   SWELL
                          AIR SEA DIR/SP/G            HT/PER HT/PER
                          (F)     (DEG/KT/KT) (MB)    (FT/S) (FT/S)
30.1N   87.6W              67 69   70/ 12/ 12 1006.6F   4/ 6   3/ 6
29.2N   88.2W              72 75   70/ 10/ 10 1006.8
28.8N   86.0W              74 76              1009.0F   5/ 6   3/ 6
PANAMA CITY BEAC           72 68  170/ 15/ 18 1007.8F
TOWER C                    71     230/ 16/ 17 1010.2F
28.5N   84.5W              77 75  180/ 16/ 19 1009.9F   6/ 7

$$
FLZ011-016>038-118-127-128-134-139-239-060400-
NORTH FLORIDA

CITY           SKY/WX    TMP DP  RH WIND       PRES   REMARKS
MARIANNA       HVY RAIN  64  64 100 CALM      29.79R FOG
TALLAHASSEE    TSTM      74  73  97 S13       29.80S
PERRY          RAIN      73  70  90 S15G21    29.86F
CROSS CITY     LGT RAIN  73  70  88 S17G24    29.87S
LAKE CITY      RAIN      72  72 100 S7        29.88R
GAINESVILLE    CLOUDY    76  69  79 S6        29.88S
WILLISTON      CLEAR     79  70  73 S9G16     29.89R
PALATKA        CLOUDY    75  68  78 S3        29.89S
MAYPORT NAS    CLOUDY    74  68  81 S7        29.87S
JACKSONVILLE   CLOUDY    73  70  90 SE7       29.85F
JAX NAS        CLOUDY    75  69  81 S6        29.87S
FERNANDINA BEA CLOUDY    73  70  88 S8        29.85F
ST AUGUSTINE   CLOUDY    75  68  78 S7        29.89S
PALM COAST     FAIR      75  68  77 MISG      29.89S

STATION/POSITION SKY/WX   TEMP    WIND        PRES    WAVE   SWELL
                          AIR SEA DIR/SP/G            HT/PER HT/PER
                          (F)     (DEG/KT/KT) (MB)    (FT/S) (FT/S)
SHELL POINT      NOT AVBL
KEATON BEACH               69     160/ 14/ 16 1010.6F
CEDAR KEY                  71     190/ 17/ 21 1012.4R
FERNANDINA                 71 68  150/  9/ 12 1010.8F
30.7N   81.3W                 66                N/A     2/ 6
MAYPORT                    74 68  170/  5/  7 1011.4F
31.4N   80.9W              66 65   90/ 16/ 17 1011.0F   3/ 5   2/ 8
ST AUGUSTINE               69 68  180/ 10/ 10 1012.5F

$$
FLZ040-043>046-052-053-057-058-063-144-060400-
INTERIOR CENTRAL FLORIDA

CITY           SKY/WX    TMP DP  RH WIND       PRES   REMARKS
OCALA          CLOUDY    75  66  73 S14       29.90R
THE VILLAGES     N/A     79  73  83 MISG      29.82R
LEESBURG       MOCLDY    76  66  71 S9        29.92R
SANFORD        CLOUDY    78  69  73 S8        29.91R
ORLANDO EXEC   CLOUDY    77  69  76 S9        29.92R
ORLANDO INTL   CLOUDY    76  69  79 S9        29.92S
KISSIMMEE      CLOUDY    74  70  87 S6        29.94R
WINTER HAVEN   CLOUDY    75  66  73 S7        29.94S
LAKELAND       CLEAR     75  68  78 S12       29.93F
BARTOW         FAIR      73  68  83 S9        29.94S
OKEECHOBEE     CLOUDY    73  70  88 S6        29.97R

$$
FLZ041-047-054-059-064-141-147-060400-
EAST CENTRAL FLORIDA

CITY           SKY/WX    TMP DP  RH WIND       PRES   REMARKS
DAYTONA BEACH  CLOUDY    77  69  76 S9        29.90S
DELAND         CLOUDY    77  70  78 S7        29.90S
NEW SMYRNA BEA MOCLDY    77  70  78 S6        29.91S
JFK SPACE CTR  CLOUDY    76  70  82 S10       29.92R
CAPE CANAVERAL CLOUDY    75  71  87 S10       29.92S
PATRICK AFB    CLOUDY    77  71  82 S12       29.93S
MELBOURNE      CLOUDY    77  71  82 S12       29.94R
VERO BEACH     CLEAR     76  71  85 S7        29.96R
FT PIERCE      CLEAR     75  71  87 S6        29.95S
STUART         CLEAR     77  73  88 S6        29.97S

STATION/POSITION SKY/WX   TEMP    WIND        PRES    WAVE   SWELL
                          AIR SEA DIR/SP/G            HT/PER HT/PER
                          (F)     (DEG/KT/KT) (MB)    (FT/S) (FT/S)
TRIDENT PIER               73 73  170/  9/ 11 1013.3S
28.4N   80.5W                 72                N/A     3/ 5

$$
FLZ050-056-061-142-242-148-248-149-249-151-251-155-255-
160-260-060400-
WEST CENTRAL FLORIDA

CITY           SKY/WX    TMP DP  RH WIND       PRES   REMARKS
CRYSTAL RIVER  FAIR      77  68  73 S3        29.91R
INVERNESS      FAIR      75  70  83 S9        29.92R
BROOKSVILLE    CLOUDY   N/A N/A N/A S10       29.92
CLEARWATER AIR FAIR      75  70  83 S12G18    29.91S
ST PETE CLEARW CLOUDY    77  71  82 S17G24    29.91S
TAMPA INTL     CLOUDY    77  70  79 S12       29.92R
TAMPA EXEC     CLOUDY    79  70  73 S12       29.92S
PLANT CITY     CLOUDY    77  70  78 S10       29.94S
MACDILL AFB    CLOUDY    74  73  97 S9        29.91S
PETER O KNIGHT CLOUDY    77  73  88 S8        29.92S
ST PETERSBURG  CLOUDY    75  71  87 S13       29.89S
SARASOTA       PTCLDY    77  71  82 S18G26    29.90F
VENICE         FAIR      77  73  88 S15G23    29.92F

STATION/POSITION SKY/WX   TEMP    WIND        PRES    WAVE   SWELL
                          AIR SEA DIR/SP/G            HT/PER HT/PER
                          (F)     (DEG/KT/KT) (MB)    (FT/S) (FT/S)
CLEARWATER BEACH           76 70  170/ 13/ 20 1012.7R
MIDDLE TAMPA BAY           76     190/ 16/ 21 1012.6F
VENICE                     74 72  150/ 14/ 16 1012.9F

$$
FLZ066-069-070-075>078-162-262-165-265-060400-
SOUTHWEST FLORIDA AND KEYS

CITY           SKY/WX    TMP DP  RH WIND       PRES   REMARKS
PUNTA GORDA    CLOUDY    76  69  79 S7        29.95S
FT MYERS       CLEAR     78  71  79 S7        29.94R
SOUTHWEST INTL CLEAR     76  70  82 S6        29.94S
NAPLES         CLEAR     77  72  84 SE10      29.93S
MARCO ISLAND   CLOUDY    75  72  88 SE9       29.94S
MARATHON       CLEAR     81  75  82 SE8       29.96R
KEY WEST NAS   PTCLDY    78  75  90 SE13      29.95S
KEY WEST INTL  CLEAR     80  77  90 SE13      29.95S

STATION/POSITION SKY/WX   TEMP    WIND        PRES    WAVE   SWELL
                          AIR SEA DIR/SP/G            HT/PER HT/PER
                          (F)     (DEG/KT/KT) (MB)    (FT/S) (FT/S)
NAPLES                        74              1013.4F
26.0N   85.6W              79 77  180/ 14/ 17 1011.0F   6/ 8   3/ 8
DRY TORTUGAS               79     160/ 12/ 13 1013.6F
SAND KEY                   79     170/ 17/ 19 1014.5R
LONG KEY                   79 78  150/ 15/ 16 1014.7R
MOLASSES REEF              79 79  160/ 18/ 20 1014.8R

$$
FLZ067-068-071>074-168-172>174-060400-
SOUTHEAST FLORIDA

CITY           SKY/WX    TMP DP  RH WIND       PRES   REMARKS
W PALM BEACH   PTCLDY    76  71  85 S9        29.97R
BOCA RATON     MOCLDY    79  73  83 S12G21    29.97R
FT LAUDER-EXEC MOCLDY    77  71  82 S6        29.97R
FT LAUDERDALE  PTCLDY    78  73  84 S10       29.96R
POMPANO BEACH  PTCLDY    79  73  82 S12G21    29.96S
PEMBROKE PINES CLEAR     77  72  84 S9        29.98S
OPA LOCKA      CLEAR     78  72  81 S12       29.97S
MIAMI          PTCLDY    77  72  84 SE8G21    29.96F
WEST KENDALL   CLEAR     78  72  81 SE8       29.96F
HOMESTEAD      CLEAR     77  74  91 SE7       29.96S

STATION/POSITION SKY/WX   TEMP    WIND        PRES    WAVE   SWELL
                          AIR SEA DIR/SP/G            HT/PER HT/PER
                          (F)     (DEG/KT/KT) (MB)    (FT/S) (FT/S)
PORT EVERGLADES            79     170/ 12/ 16 1014.6
VIRGINIA KEY               78 82  160/ 10/ 12 1015.4R
LAKE WORTH                 79 79  170/ 18/ 21 1014.4R
FOWEY ROCKS                79 77  150/ 20/ 23 1015.4R

$$




USA.gov is the U.S. government's official web portal to all federal, state and local government web resources and services.